Theta_e
272 273 274 276 276 275 275 275 276 276 275 274 274 274 274 273 273 274 274 274 274 274 274 274 275 275 275 275 275 275 275 275 275 276 277 277 277 277 277 276 276 277 277 277 277 277 277 278 278 278 278 278 279 279 279 279 279 279 279 279 279 279 280 280 280 281 282 282 283
272 273 274 276 276 275 274 275 275 275 275 274 274 274 274 274 274 274 274 274 274 274 274 275 275 275 274 275 275 275 275 275 276 276 277 277 277 277 277 276 276 277 277 277 277 277 277 277 278 278 278 278 279 279 279 279 279 279 279 279 279 279 280 280 280 281 282 282 282
272 272 273 273 273 273 273 274 274 273 273 273 274 274 274 274 274 274 274 274 274 274 275 275 275 275 275 275 275 275 276 276 276 276 277 277 277 277 277 276 276 276 277 277 277 277 277 277 278 278 278 278 278 278 279 279 280 279 279 279 280 280 280 280 281 281 281 282 282
272 272 272 272 272 271 272 273 273 273 273 274 274 274 274 274 274 274 274 274 274 274 274 274 275 275 276 276 275 276 276 277 277 277 276 277 277 277 277 277 276 276 276 276 277 277 277 277 278 278 278 278 278 278 279 279 280 280 280 280 280 280 280 281 281 281 281 281 281
272 272 272 272 272 272 272 272 272 272 273 274 274 274 274 274 274 274 274 274 274 274 274 275 275 276 276 276 276 276 276 277 277 277 276 276 276 277 277 277 276 276 276 276 276 277 277 277 277 278 278 278 278 279 279 280 280 280 280 280 280 280 280 280 281 281 281 281 282
272 272 272 272 272 272 272 273 272 272 273 273 273 273 273 274 274 274 274 274 274 274 275 276 276 276 276 276 276 276 276 276 276 276 276 276 276 276 277 276 276 276 276 276 276 276 277 277 277 277 278 278 279 279 279 280 280 279 279 280 280 280 280 280 281 281 281 281 281
272 272 272 272 272 272 272 272 272 273 273 273 273 272 272 273 273 273 274 274 274 275 275 276 276 275 275 275 275 275 276 276 276 276 276 276 276 276 276 276 277 277 277 277 276 276 276 276 276 277 278 278 278 279 279 279 279 279 279 279 279 280 280 280 281 281 281 281 281
272 272 272 272 272 272 272 272 272 272 273 273 272 272 272 273 273 273 274 274 274 275 275 276 275 275 275 275 275 275 275 275 276 276 276 276 276 276 276 276 276 277 277 277 276 276 276 276 276 276 277 277 277 278 278 278 278 278 278 278 279 279 280 280 281 281 281 281 281
272 272 272 272 272 272 272 272 272 272 272 272 272 272 272 274 274 274 274 274 275 275 275 275 275 275 275 275 275 275 275 275 275 275 276 276 276 276 276 276 276 277 277 277 276 276 275 275 276 276 276 276 276 277 277 277 277 277 278 278 278 279 280 280 280 281 281 281 281
272 272 272 272 272 272 273 272 272 272 272 272 272 272 273 275 275 274 274 275 275 275 275 275 275 275 275 275 275 275 275 275 275 275 275 275 276 276 276 276 276 276 277 277 276 275 275 275 275 275 276 276 276 276 276 277 277 277 277 278 278 279 279 279 280 280 280 281 280
272 272 272 272 272 272 273 272 272 273 273 273 272 272 273 274 274 275 275 276 275 275 275 275 275 275 275 275 275 275 275 275 275 275 275 275 275 276 276 276 276 276 276 276 275 275 275 275 275 275 275 275 275 276 276 276 276 277 277 277 278 278 278 279 280 280 280 281 281
272 272 272 272 272 272 272 272 273 273 273 273 273 273 274 274 275 275 276 276 275 275 275 276 276 276 275 275 275 275 275 275 275 275 275 275 275 275 276 276 276 276 276 275 275 274 274 274 274 274 274 275 275 275 276 276 276 276 277 277 278 278 278 279 280 280 281 281 281
272 272 272 272 272 272 272 273 273 274 274 274 274 274 275 275 275 276 276 275 275 276 276 276 276 276 275 275 275 275 275 275 275 275 275 275 275 275 276 276 276 275 275 274 274 274 274 274 274 274 274 274 275 275 275 276 276 276 276 277 277 278 279 279 280 281 281 281 281
272 272 272 272 272 273 273 274 274 274 274 274 274 275 275 275 276 276 276 276 276 276 276 276 276 276 276 275 275 275 275 275 275 275 275 275 275 275 275 275 275 274 274 274 274 274 274 274 274 274 274 274 274 275 275 275 276 276 276 277 277 278 279 280 281 281 282 282 282
272 272 272 272 273 273 274 274 274 275 275 274 275 275 275 276 276 276 276 276 275 275 275 275 275 276 276 276 275 275 275 275 275 275 275 275 275 275 275 274 274 273 273 273 274 274 274 274 274 274 274 274 274 274 275 275 276 276 277 277 278 279 281 282 282 282 282 282 281
272 272 272 273 273 274 274 274 275 275 275 275 275 275 275 276 276 276 276 275 275 275 275 275 275 275 275 276 275 275 275 275 275 275 275 275 275 274 274 273 273 273 273 273 273 273 274 274 275 275 275 274 274 275 275 275 276 276 277 277 279 281 282 284 284 283 283 282 282
272 272 273 274 273 274 274 274 274 275 275 275 275 275 275 276 276 276 276 276 275 275 275 275 275 275 275 275 275 275 275 275 274 274 274 274 274 274 273 273 273 273 273 273 273 273 273 274 275 275 275 275 275 275 275 276 276 277 277 279 280 282 283 284 283 283 283 283 283
273 273 273 274 274 274 274 274 274 274 275 275 275 275 275 275 275 275 275 275 275 275 274 274 274 274 274 274 274 275 275 275 274 274 274 274 274 274 273 273 273 273 273 273 273 273 273 274 275 275 275 275 275 276 276 277 277 278 279 280 281 282 281 281 281 281 281 281 281
273 273 274 274 274 274 274 274 274 275 275 275 275 275 275 275 275 275 274 275 275 275 274 274 274 274 274 274 274 274 275 275 275 274 275 274 274 274 273 273 273 273 273 273 273 273 273 274 274 275 275 275 275 276 277 277 278 279 280 281 280 280 279 278 278 278 278 278 279
273 273 273 274 274 274 274 274 274 274 275 275 275 275 275 275 275 274 274 274 274 275 274 274 274 274 274 274 274 274 274 275 275 275 275 274 274 274 273 273 273 273 273 273 274 273 273 274 274 275 275 275 276 277 277 278 279 280 281 279 278 277 277 277 277 277 277 278 280
273 273 273 274 274 274 274 274 274 274 275 275 275 275 274 274 274 274 274 274 274 274 274 273 273 274 274 274 274 273 274 275 275 275 274 274 274 274 274 274 274 274 274 274 274 274 274 274 275 275 276 276 277 278 278 279 281 281 279 277 277 277 277 277 277 278 279 281 282
273 273 273 273 274 274 274 274 274 274 274 274 274 274 274 274 274 274 274 274 274 274 274 273 274 274 274 274 274 274 274 275 275 274 274 274 274 274 275 275 275 274 274 274 274 274 274 275 276 277 277 278 279 280 280 282 281 280 278 277 278 279 279 279 280 281 282 283 283
273 273 273 273 273 274 274 274 274 274 274 274 274 274 274 273 273 273 274 273 274 273 273 274 274 274 274 274 274 274 274 275 274 274 274 274 274 275 275 275 275 275 274 275 275 275 275 276 278 279 280 281 281 282 282 282 280 278 278 279 280 281 281 282 282 283 283 284 284
273 273 273 273 273 273 274 274 274 274 274 273 273 273 273 273 273 273 273 273 273 273 273 273 274 274 274 274 274 274 274 274 274 274 274 274 274 275 275 275 275 275 275 275 277 278 279 280 281 281 282 282 282 281 280 279 278 278 279 280 281 281 282 282 283 283 284 284 283
272 272 272 273 273 273 273 274 274 274 274 273 273 273 273 273 273 273 273 273 273 273 273 273 274 274 275 274 274 274 274 274 274 274 274 274 274 275 275 275 276 276 276 277 280 283 285 285 284 283 282 281 280 279 279 278 279 279 280 281 281 281 281 282 283 283 283 282 282
272 271 272 273 272 273 274 274 274 274 274 273 273 272 272 273 273 273 273 273 273 273 273 273 273 275 276 275 274 274 274 274 274 274 274 274 275 275 275 276 276 276 277 279 282 285 287 288 287 285 282 280 279 279 279 279 280 280 280 280 280 281 281 282 282 282 282 281 281
271 271 271 273 273 273 274 274 274 274 274 274 273 272 272 273 273 273 273 272 273 273 273 273 274 275 276 274 274 273 273 274 274 274 275 275 275 275 276 276 276 276 278 281 284 286 288 288 287 285 283 280 279 279 279 280 280 280 280 280 280 281 281 282 281 281 281 280 279
270 271 272 273 273 273 273 274 274 274 274 274 273 272 272 273 273 273 273 273 273 273 273 274 275 275 275 274 274 274 274 274 274 275 275 275 276 276 276 276 276 277 280 284 286 287 288 288 288 286 285 282 280 279 280 280 280 280 279 279 279 280 280 281 281 280 280 279 278
270 271 273 273 273 273 273 273 274 274 274 274 273 273 273 273 273 273 273 273 273 273 273 274 275 275 274 274 274 274 274 274 275 275 275 275 276 276 276 277 277 279 282 287 287 288 288 288 287 287 286 284 281 280 280 280 280 279 279 279 279 279 279 280 280 280 280 279 279
271 272 273 273 273 273 273 273 274 274 274 274 273 273 273 272 272 272 272 272 272 273 274 274 274 274 273 273 274 274 274 274 274 275 275 275 276 276 277 277 277 279 282 288 287 287 287 287 287 287 286 285 282 280 280 280 279 279 279 279 279 279 279 279 280 280 280 280 279
271 272 273 273 273 273 273 274 274 274 274 274 274 273 273 272 272 272 272 272 273 274 275 274 274 273 273 274 274 274 274 274 274 275 275 275 276 276 276 277 277 279 283 287 286 286 286 286 286 286 285 285 282 280 280 280 279 279 279 279 278 278 278 279 279 279 280 280 279
271 272 272 272 273 273 273 274 274 274 274 274 273 273 272 272 272 272 272 273 274 274 274 274 273 273 273 274 274 274 274 274 274 275 275 276 276 276 276 277 276 279 284 287 286 286 285 285 285 285 285 284 282 280 279 279 279 279 279 279 279 278 278 278 278 279 279 281 280
271 272 272 272 273 273 274 274 274 274 274 273 273 273 273 272 272 272 273 273 274 274 274 274 274 273 273 273 273 273 274 274 274 275 276 276 276 276 276 276 276 280 285 287 286 285 285 285 284 284 284 283 281 279 279 279 279 279 279 278 278 278 278 278 278 278 279 282 281
272 272 273 273 273 274 274 274 274 274 273 273 273 273 273 272 272 272 273 274 274 274 274 275 274 274 274 274 273 273 274 274 274 274 275 275 275 276 276 276 276 280 285 287 286 286 285 284 284 283 283 282 280 279 278 278 278 278 278 278 278 278 278 278 278 278 279 282 282
273 273 273 273 273 274 274 274 274 274 273 273 273 272 272 272 272 272 273 275 275 275 274 275 274 274 274 274 273 273 274 274 274 274 275 275 275 275 276 276 276 280 285 287 287 286 285 284 284 283 282 280 278 277 277 278 278 278 277 277 278 278 278 278 278 278 278 281 282
273 273 273 273 274 274 274 274 274 273 273 272 272 272 272 272 272 272 273 275 275 274 274 275 275 274 274 273 273 273 274 273 274 274 275 275 276 275 275 275 276 279 284 287 287 286 285 284 283 282 281 278 276 276 277 277 277 277 277 277 277 277 277 277 277 277 278 280 282
274 274 274 274 274 274 274 274 273 272 272 272 272 272 271 272 272 272 274 276 274 274 274 275 274 274 273 273 273 273 273 273 274 275 275 276 276 276 275 275 276 278 282 286 287 287 286 285 283 282 279 276 275 275 276 276 276 276 276 276 277 277 277 277 277 277 278 279 282
274 274 274 274 274 274 274 274 273 272 272 272 272 272 272 272 272 273 274 276 274 274 274 275 274 274 273 273 273 273 273 274 275 275 275 275 276 276 276 275 275 277 281 286 287 287 286 285 284 282 279 275 274 274 275 275 275 275 276 276 276 277 277 277 278 278 278 278 282
274 274 275 274 273 273 273 273 273 272 272 272 272 272 272 272 272 273 275 275 275 275 275 275 274 274 274 274 273 273 272 273 274 275 275 275 276 277 277 275 275 277 280 284 286 287 286 286 284 282 280 276 274 274 274 274 274 274 275 275 275 276 277 277 277 277 277 278 282
274 275 275 274 273 272 272 272 272 272 272 272 272 272 272 273 273 274 274 275 275 275 275 275 274 274 274 275 273 272 272 273 273 274 275 276 277 278 278 276 276 277 279 283 285 286 286 286 285 283 280 276 274 273 274 273 273 273 273 274 275 275 276 276 277 277 277 277 279
274 275 275 274 273 272 272 271 271 272 272 272 272 272 273 274 274 273 273 274 274 275 275 275 274 274 273 274 273 272 272 272 273 274 275 276 276 277 277 276 276 276 278 281 284 285 286 286 285 284 281 277 274 273 273 273 272 272 272 273 273 274 275 276 276 276 276 276 277
Wind_Speed
6 6 6 7 7 7 6 6 7 7 7 7 7 7 7 7 7 7 7 7 7 7 8 8 8 9 10 11 12 12 12 12 13 14 15 15 14 14 14 14 13 14 14 14 14 13 12 12 11 9 8 8 8 8 8 8 9 9 9 9 9 10 10 11 12 12 13 13 10
7 7 7 8 8 7 6 6 7 7 7 6 7 7 7 7 7 7 7 7 7 8 8 8 9 10 11 12 12 12 12 13 14 14 14 14 14 14 14 13 14 14 14 15 14 12 11 12 11 10 8 8 8 8 9 8 9 9 10 11 9 9 9 10 11 11 12 11 10
7 7 7 7 7 7 6 7 7 7 8 7 7 7 7 7 7 7 7 8 8 9 9 9 9 10 11 12 11 11 12 13 14 14 13 13 13 14 14 13 14 15 15 14 13 12 12 12 11 10 9 8 9 9 9 9 9 9 10 10 9 8 8 8 9 9 9 8 9
8 8 8 8 8 8 7 7 8 8 8 8 8 7 7 7 7 8 8 9 9 9 9 9 9 10 11 12 12 13 14 15 15 15 14 13 13 14 14 14 14 14 14 14 14 14 14 13 11 9 9 10 10 10 9 8 9 9 8 8 8 8 8 8 8 8 8 8 9
9 8 8 8 8 8 8 7 8 8 8 8 8 7 7 8 8 8 9 9 9 9 9 11 10 11 11 13 14 15 15 15 15 14 13 13 13 14 14 14 14 14 14 14 14 15 15 15 11 9 9 9 9 8 9 9 9 9 8 8 8 8 8 8 8 8 8 8 8
9 9 8 8 8 8 8 7 8 8 8 8 8 8 8 8 8 9 9 10 10 10 11 12 12 12 13 14 14 14 14 14 13 13 13 14 14 14 15 15 15 14 14 14 14 15 15 14 11 9 9 9 8 9 9 10 10 9 9 9 9 8 9 9 8 8 8 9 10
9 9 9 9 9 8 8 8 8 8 8 8 9 9 9 9 9 10 10 10 10 10 10 11 11 12 13 14 14 14 14 13 13 14 14 14 14 15 15 15 15 15 14 14 14 14 14 14 11 9 9 9 8 9 10 10 10 11 11 11 10 9 9 10 9 8 9 11 12
8 8 8 9 9 9 9 9 9 8 8 8 9 9 10 10 11 11 10 10 9 9 10 10 11 13 13 14 14 14 14 14 14 14 14 14 15 16 16 16 16 15 15 14 14 14 14 12 10 9 9 9 9 10 11 13 13 13 13 13 11 10 9 9 8 8 9 11 12
8 8 8 9 8 9 9 9 9 9 8 8 9 9 10 11 12 12 11 9 10 10 10 10 12 13 14 15 14 14 13 13 14 14 14 15 16 16 16 16 15 15 14 14 15 15 15 12 10 9 9 9 10 11 13 15 15 15 14 13 12 11 11 10 10 10 11 11 12
9 9 9 9 9 9 9 9 9 9 9 9 9 9 10 12 12 11 10 10 10 10 10 10 12 13 14 14 14 13 13 13 13 14 15 15 16 17 16 15 15 15 14 14 14 14 14 12 11 11 11 11 12 14 15 16 16 16 14 12 12 13 14 13 13 12 12 11 12
9 9 9 9 9 10 10 9 9 9 8 8 8 8 9 10 11 11 10 10 11 11 11 12 13 13 13 13 13 13 13 13 13 14 14 15 16 16 16 16 15 15 15 15 14 13 12 12 13 14 14 14 14 14 15 16 16 16 15 14 14 15 16 16 14 12 11 10 11
10 10 9 9 10 10 9 9 9 8 8 8 9 9 9 9 10 11 12 12 12 12 12 12 13 13 12 11 12 13 13 13 14 14 14 15 15 16 16 16 16 16 16 15 13 12 12 13 14 16 17 17 14 13 13 15 16 16 16 16 16 16 15 16 14 12 9 9 9
10 10 10 10 10 10 10 9 9 9 9 9 9 10 10 10 11 12 12 12 12 12 11 12 12 12 12 12 12 12 13 13 14 14 14 14 14 15 15 15 16 16 15 14 13 13 13 14 16 17 18 18 15 14 14 16 16 16 17 17 17 16 16 15 14 11 9 9 9
10 10 10 10 10 10 10 10 9 9 10 11 11 11 10 10 11 12 12 12 12 12 11 11 11 11 12 13 13 13 13 13 14 14 14 14 14 14 15 15 15 15 14 13 14 14 14 15 16 17 18 19 18 18 17 17 16 16 17 17 18 17 16 15 13 10 9 8 9
10 10 10 10 10 10 10 10 9 9 10 11 11 11 10 10 11 11 11 12 12 11 11 11 11 11 12 13 13 14 14 13 14 14 14 14 14 14 15 15 15 14 14 14 14 14 15 16 16 16 17 18 19 19 18 18 17 17 16 17 18 17 16 13 9 8 7 8 8
10 10 11 11 11 10 10 10 9 9 10 11 11 11 10 10 10 11 12 12 11 11 11 12 12 11 12 13 14 14 13 13 13 14 14 14 15 15 15 15 15 15 15 15 15 15 15 15 15 15 16 17 18 18 18 18 18 17 17 17 17 16 13 9 6 5 6 7 8
11 11 11 12 11 11 11 11 10 10 10 11 11 11 10 10 10 11 12 13 12 11 12 13 12 11 11 12 12 12 12 12 12 13 13 14 15 15 15 15 15 15 15 15 15 16 16 16 15 15 16 16 17 17 18 18 17 17 17 17 16 13 10 8 5 4 5 6 8
12 12 12 12 13 13 13 13 12 11 12 12 11 11 11 10 11 11 12 12 12 13 13 13 12 12 12 12 12 11 11 11 12 12 13 14 14 14 14 14 14 14 14 15 15 16 16 17 16 16 16 16 16 17 17 17 17 17 17 16 12 10 8 6 5 4 5 6 7
12 13 13 13 13 13 13 14 13 13 12 12 11 11 11 11 12 11 11 12 13 13 13 13 13 12 13 13 13 12 11 11 12 13 14 14 14 14 14 14 14 14 14 15 15 15 16 16 17 17 16 16 16 17 17 17 16 16 14 11 9 7 6 6 5 5 5 5 6
13 13 13 13 13 13 13 13 13 12 12 11 12 12 12 12 12 12 11 11 12 13 13 13 13 13 13 14 13 13 12 11 12 13 14 14 14 14 14 14 14 14 14 14 15 15 15 16 17 17 17 17 18 18 18 17 16 13 10 7 6 6 6 6 5 5 5 6 6
12 12 12 12 12 12 12 12 12 12 12 11 12 12 12 12 12 12 12 12 12 12 12 12 13 13 14 14 13 13 12 11 12 13 14 14 14 14 14 14 14 14 14 14 14 15 15 16 17 17 18 18 18 18 16 14 12 9 6 5 6 6 6 6 6 6 6 6 6
12 12 12 11 12 12 12 12 12 12 11 11 11 12 12 12 12 12 12 12 12 12 12 12 13 13 13 13 13 12 12 12 12 13 13 13 13 14 14 13 14 14 14 14 14 15 15 16 17 18 18 17 16 14 12 9 7 6 6 6 6 6 6 6 6 6 6 6 5
11 11 11 10 11 12 12 12 11 11 11 11 11 11 12 12 12 12 12 11 11 12 12 11 12 12 13 12 12 12 13 13 13 13 13 13 13 14 14 13 13 13 13 13 13 14 15 15 17 17 15 12 9 7 5 5 5 5 6 7 7 7 7 7 7 6 5 4 4
11 11 10 9 10 11 11 11 11 11 11 11 11 11 11 12 12 12 12 12 12 12 11 11 11 12 12 12 12 13 14 15 15 15 15 14 14 14 14 13 12 12 12 12 14 16 17 17 16 13 9 6 5 5 5 5 5 6 6 7 7 8 7 7 5 5 6 7 7
10 10 10 10 10 10 10 10 11 11 11 11 11 11 11 12 12 12 12 12 12 12 12 11 11 12 12 12 13 13 14 15 15 15 15 15 15 14 13 12 11 11 11 13 19 25 27 25 17 10 7 6 6 6 6 6 6 7 7 8 8 8 7 6 6 7 8 8 7
10 10 10 10 10 10 10 10 11 11 11 11 11 11 11 11 11 12 12 12 12 12 12 11 11 12 14 13 14 14 14 14 14 15 15 15 15 15 14 12 11 10 11 16 24 28 29 24 15 11 8 6 6 6 6 6 7 8 9 9 9 8 7 6 8 9 9 7 7
10 10 10 10 10 11 11 10 11 11 11 11 11 11 11 11 11 12 12 13 13 13 12 11 12 13 14 13 14 15 15 14 14 15 15 15 15 15 15 13 11 11 13 21 25 24 20 16 17 16 13 8 7 7 7 7 8 9 10 10 10 9 8 8 9 9 8 7 6
10 10 10 11 11 11 11 11 11 12 12 12 11 11 11 12 12 12 13 13 13 13 12 11 12 12 11 11 13 14 15 15 15 14 14 15 16 16 15 14 13 15 18 23 20 17 18 21 21 20 17 12 8 7 7 8 9 9 10 10 11 10 10 9 8 8 7 7 6
10 10 11 11 11 11 11 12 12 12 12 12 11 11 12 12 12 13 13 14 14 13 12 11 11 11 11 12 13 14 15 15 14 14 14 15 16 16 16 16 16 19 22 23 21 22 23 23 23 22 20 16 10 8 7 8 9 10 10 10 10 11 10 9 9 8 7 6 6
10 10 11 11 12 12 12 12 12 12 12 11 11 11 12 12 12 13 13 14 13 13 12 12 12 12 13 13 13 13 13 14 13 14 15 16 17 17 17 18 17 19 22 28 26 25 25 24 23 23 21 19 14 10 8 9 9 10 10 9 11 11 11 11 11 10 8 7 6
10 10 11 11 12 12 12 12 12 12 12 11 11 11 11 12 12 12 12 12 12 13 13 13 14 14 14 13 13 13 13 13 14 14 15 16 17 17 18 18 18 19 21 29 26 26 26 25 24 23 22 20 15 11 9 9 10 10 9 9 11 12 12 12 12 12 10 8 6
10 10 11 11 11 12 12 11 11 11 11 11 11 11 11 11 11 11 12 12 12 13 14 15 15 15 14 14 14 13 14 14 14 15 15 16 16 16 17 18 18 19 22 29 26 27 27 26 25 24 23 21 16 12 10 10 10 10 9 10 11 12 13 12 12 13 12 8 7
10 10 10 11 11 11 11 11 11 11 11 11 11 11 11 11 11 11 12 12 13 13 14 15 14 14 14 14 13 14 14 14 14 15 16 16 15 16 17 17 16 19 24 31 27 27 28 28 27 25 23 21 15 12 11 11 10 9 10 10 11 12 13 14 14 14 13 10 9
10 10 10 10 11 11 11 11 11 11 11 11 11 11 11 11 11 11 12 13 12 12 13 13 13 12 12 12 12 13 13 13 13 14 14 15 14 15 16 16 14 20 27 32 28 28 28 29 28 26 24 20 14 11 11 12 11 11 11 12 13 14 14 14 15 15 14 12 11
11 11 10 10 10 10 10 10 10 11 11 11 11 12 11 11 11 11 12 13 13 12 11 11 11 11 11 11 12 12 13 13 13 13 13 14 14 15 16 17 17 22 29 33 28 28 28 29 28 26 23 17 12 10 11 12 12 12 14 15 15 16 16 15 14 14 14 12 12
11 11 10 10 10 10 10 10 10 11 11 11 11 11 11 11 10 10 11 13 13 12 12 12 11 11 11 11 11 12 13 13 12 13 13 14 15 15 16 17 18 23 28 33 29 28 28 28 28 26 22 15 10 9 10 11 11 12 14 15 16 16 16 15 14 14 14 12 12
11 10 10 10 10 10 10 10 11 11 11 11 11 11 11 11 10 10 11 13 12 12 12 11 11 11 11 11 11 11 11 12 12 13 13 14 15 16 16 17 18 22 26 32 30 28 27 28 27 25 20 13 10 10 10 10 10 11 13 14 14 15 15 13 14 14 15 15 15
11 10 10 9 9 10 10 11 11 11 11 11 10 10 10 9 9 10 11 13 12 12 12 11 10 10 10 11 11 12 12 12 13 13 13 14 15 16 17 17 18 20 24 30 30 29 27 26 26 24 19 12 10 10 9 9 10 11 11 11 12 13 13 12 12 13 14 17 20
11 10 10 9 9 9 10 11 11 11 11 11 10 10 9 9 8 10 11 12 12 11 11 11 10 10 10 12 11 11 12 12 12 13 13 13 15 17 18 16 16 18 22 29 30 29 28 26 25 23 19 13 10 9 9 9 10 10 11 10 10 11 11 11 11 11 13 16 22
11 10 9 8 8 9 10 10 11 10 10 10 10 10 10 9 9 10 11 11 11 10 10 10 10 10 10 12 10 10 11 11 11 12 12 13 15 17 18 16 15 17 20 26 29 30 29 27 25 23 18 12 9 8 8 8 9 10 10 10 10 9 9 9 9 10 11 13 16
10 10 9 8 8 9 9 10 10 10 9 9 9 9 9 10 9 10 10 10 10 10 9 8 9 9 10 11 9 9 10 10 11 11 11 13 14 15 16 14 14 15 17 22 27 29 29 28 26 23 19 12 9 7 7 8 9 10 10 10 9 9 8 8 8 9 9 10 11
Wind_Direction
337 336 335 336 339 338 335 331 331 332 332 328 324 322 320 320 318 317 318 319 319 319 319 318 317 317 316 315 315 315 316 316 315 316 318 321 322 323 323 322 321 320 318 317 315 313 311 309 308 305 301 298 295 293 291 290 290 288 287 285 285 285 285 285 284 285 286 288 292
336 334 334 336 338 336 332 331 332 332 330 325 322 321 320 320 319 319 319 320 319 318 317 316 316 314 313 312 313 315 315 315 315 316 319 321 321 322 321 320 320 319 318 317 315 312 310 309 306 303 300 297 295 294 292 289 288 286 284 283 282 282 283 283 283 285 288 291 292
338 336 336 336 335 334 332 331 330 329 327 324 323 324 323 323 321 321 320 320 318 317 316 316 314 313 312 312 315 315 315 315 316 317 318 319 319 319 320 319 319 318 318 316 314 311 309 308 306 303 301 299 297 296 293 291 288 286 284 283 283 283 283 284 286 287 289 290 290
340 338 336 335 333 331 329 329 328 327 326 326 326 326 326 325 324 322 321 319 318 317 316 315 312 312 314 316 317 316 315 315 316 317 318 318 317 317 317 317 317 317 317 315 313 311 310 309 306 304 301 299 297 295 293 292 291 288 286 285 285 285 284 285 287 287 287 286 286
340 338 336 333 330 328 326 326 326 326 326 327 327 327 327 326 325 323 321 321 320 318 315 313 313 316 319 320 318 316 316 316 318 318 317 316 316 316 316 316 316 316 315 315 314 313 312 312 308 304 301 299 296 294 293 294 294 291 289 287 288 287 285 285 285 284 283 283 282
337 335 332 329 327 326 325 325 325 325 325 325 325 325 324 324 323 322 321 320 318 315 313 315 318 321 321 320 318 318 318 318 318 317 316 316 316 316 316 315 314 314 314 314 314 314 314 314 310 305 302 300 296 295 295 297 297 295 293 292 292 289 287 285 284 282 280 278 278
332 330 328 327 326 325 325 324 324 324 324 324 323 321 320 318 318 318 318 317 317 316 317 321 324 323 321 320 320 320 320 320 318 318 318 318 318 317 316 314 314 313 313 314 315 315 315 314 310 306 304 303 301 300 300 301 301 299 297 294 292 289 286 283 280 278 277 275 276
328 327 326 325 324 323 323 324 324 324 323 322 320 317 316 315 318 319 319 317 318 320 321 323 322 321 320 321 322 322 322 320 320 321 321 320 319 317 316 314 312 312 312 314 315 316 315 313 309 306 305 305 303 303 302 303 301 298 295 292 290 287 284 280 278 276 275 275 275
329 327 325 324 324 323 324 324 322 321 318 316 313 312 313 318 322 323 321 319 320 321 321 320 320 320 321 323 323 323 323 323 323 323 323 321 320 318 316 314 313 313 314 316 316 316 315 312 308 305 305 304 303 302 302 302 299 296 293 291 289 287 285 282 279 277 275 274 273
328 327 326 325 324 324 324 323 320 317 314 311 310 309 313 320 323 322 320 318 319 320 319 319 320 322 323 324 324 325 325 325 324 324 323 321 320 318 316 315 314 315 316 317 318 316 314 310 307 305 304 303 301 300 299 299 297 295 293 291 290 289 288 285 281 277 274 271 269
326 326 325 324 323 323 323 322 319 317 314 312 312 312 314 318 319 319 318 319 320 320 320 322 323 324 324 324 325 326 326 326 324 323 321 320 319 317 316 315 316 317 317 318 316 314 311 308 307 305 304 303 301 299 298 297 297 296 294 292 290 289 288 285 281 277 272 267 266
326 325 323 323 322 322 322 320 319 318 317 317 317 317 318 319 320 321 321 323 323 323 324 326 326 326 326 325 326 326 325 324 322 321 319 318 317 316 316 316 317 318 317 315 313 311 308 307 306 306 305 304 301 299 297 298 297 296 295 293 291 289 286 283 280 276 271 266 266
325 325 324 323 322 322 321 321 321 322 324 325 324 324 324 324 324 326 327 327 328 328 329 329 328 328 327 326 325 325 323 321 320 319 318 317 316 316 317 317 317 316 315 312 309 307 305 305 305 306 305 305 303 300 299 298 297 297 296 296 294 290 286 281 277 272 268 265 265
326 325 325 324 324 324 325 326 327 329 331 330 330 329 329 328 329 330 331 332 332 332 331 331 330 330 329 327 325 323 321 318 317 317 316 316 316 316 316 316 315 314 311 308 306 305 304 304 305 305 305 304 303 301 300 299 298 298 297 297 295 291 286 279 272 267 263 262 264
328 327 326 326 327 329 331 332 332 333 334 333 332 332 331 331 333 334 335 335 335 333 332 332 330 329 327 326 324 321 319 316 316 315 315 315 316 316 315 314 313 311 308 306 305 303 302 302 303 303 303 302 301 301 300 300 299 298 297 296 294 292 288 281 270 260 256 259 262
331 331 331 332 333 335 336 337 337 336 335 334 334 334 334 335 336 337 338 338 336 334 332 330 329 327 325 325 322 320 317 315 315 315 315 315 315 315 315 313 311 308 307 305 303 302 301 301 301 301 300 299 298 298 298 297 297 297 296 293 292 293 297 301 286 265 255 259 265
335 336 337 338 339 340 340 340 339 338 336 335 336 336 337 337 338 339 339 338 335 332 330 327 326 324 322 321 319 317 316 315 314 314 314 314 314 314 312 310 308 306 305 304 302 301 301 301 301 299 297 295 294 293 293 293 293 293 292 289 289 294 304 320 313 290 271 270 275
341 342 342 343 344 344 343 342 341 339 338 337 338 338 339 339 338 337 336 335 332 329 327 324 323 321 319 317 315 315 315 314 313 312 312 312 311 311 309 307 305 304 303 302 300 300 300 300 300 298 296 293 290 289 288 288 288 287 285 282 283 288 298 310 306 296 283 278 282
344 345 345 347 347 346 344 343 342 341 339 339 339 339 338 338 337 334 331 328 328 326 324 321 320 318 316 315 313 313 313 313 312 311 310 310 310 308 307 305 304 303 302 300 299 298 298 298 298 296 293 290 288 286 285 286 285 282 279 275 276 280 286 293 294 290 284 278 281
346 346 347 347 347 345 344 343 342 341 340 339 338 337 336 336 334 330 327 324 323 323 321 319 317 316 315 314 312 311 311 310 310 310 310 309 309 307 306 304 304 302 301 300 298 298 297 296 295 293 290 287 285 283 283 283 282 279 276 273 273 276 282 290 294 292 288 284 285
347 347 346 346 345 344 343 343 342 340 339 338 337 335 334 333 330 327 323 321 321 320 320 318 316 314 313 313 312 311 310 310 310 309 309 308 307 306 306 305 305 303 301 300 299 298 296 294 291 288 285 282 280 279 278 278 280 282 283 281 281 285 291 299 302 301 298 294 292
346 345 345 343 342 342 342 342 341 340 338 336 335 333 332 330 326 323 321 321 321 321 320 318 316 314 313 313 312 312 312 312 311 309 308 308 307 308 308 308 307 305 302 301 300 297 294 291 287 284 281 279 277 277 277 281 290 297 299 299 302 307 312 314 312 308 305 302 302
342 342 342 339 339 339 339 340 339 338 337 335 333 332 330 327 323 322 321 322 322 321 320 318 317 315 314 313 314 315 316 316 315 313 311 310 310 311 311 311 309 307 305 303 300 296 293 288 286 285 285 286 288 293 303 316 317 317 318 320 324 326 325 320 317 318 325 338 348
339 338 337 335 335 334 335 337 337 337 336 334 332 330 328 325 323 322 323 324 323 322 321 320 319 317 317 318 320 322 322 321 320 318 316 315 315 315 315 314 311 309 307 305 303 301 299 296 300 306 316 335 351 358 354 344 337 335 336 337 336 334 330 325 335 357 17 23 21
335 333 332 331 330 330 332 335 337 337 335 333 332 330 328 325 325 325 326 326 325 324 323 321 321 322 323 327 328 328 327 326 324 323 321 320 319 318 318 316 314 312 309 306 306 306 306 308 320 340 15 24 16 10 3 354 353 352 351 349 345 340 337 345 15 31 34 29 23
331 330 329 328 328 330 332 335 336 336 335 334 333 331 329 327 328 328 329 329 328 327 326 325 325 329 332 333 333 332 331 330 328 326 324 323 323 323 322 319 316 313 308 305 307 308 312 322 354 28 49 28 15 10 7 4 5 4 2 359 353 351 356 18 33 35 33 26 18
330 329 328 327 329 331 333 334 336 336 337 337 335 332 330 330 331 332 332 331 330 329 329 329 330 333 335 334 334 333 333 332 330 328 327 326 327 327 326 322 318 312 307 306 309 317 333 10 43 53 51 32 19 13 12 10 11 12 12 9 5 4 11 28 32 31 27 20 12
329 328 328 330 332 334 334 335 336 338 338 339 336 334 332 333 334 334 334 333 332 331 332 333 335 335 336 336 335 335 334 333 331 331 331 331 331 331 329 325 321 317 317 321 334 359 27 46 52 51 46 38 27 17 14 14 16 18 18 16 12 11 13 22 24 23 20 15 10
327 327 329 332 333 334 335 336 337 338 339 339 336 334 334 335 336 335 334 333 332 332 334 336 337 336 336 337 337 336 335 334 333 334 335 335 335 334 332 328 324 327 337 357 25 38 41 43 44 44 41 37 31 21 16 18 20 21 20 18 14 12 12 14 15 15 13 12 12
327 328 330 332 333 334 335 336 337 338 339 339 336 335 335 336 336 335 334 332 332 333 335 337 336 336 336 337 338 338 337 336 336 337 338 339 338 336 334 331 329 337 354 21 37 40 36 36 38 38 37 34 30 25 20 21 22 22 20 17 13 12 12 13 12 9 7 7 10
327 329 331 333 334 334 334 334 336 338 340 339 337 336 336 337 336 334 333 331 331 333 335 337 337 337 337 339 341 340 339 338 339 341 342 341 340 337 335 334 334 342 359 23 38 40 36 35 35 35 34 32 28 24 21 23 23 21 18 15 13 13 14 14 11 5 0 360 6
328 330 332 334 334 333 333 334 336 339 340 339 337 337 337 336 334 333 332 331 332 335 337 339 339 339 340 342 343 343 342 341 343 344 344 343 340 339 338 338 338 348 6 26 40 42 38 36 35 34 32 30 27 23 21 22 21 19 16 13 13 15 17 17 12 3 357 355 6
329 332 334 335 334 334 334 335 338 340 340 339 339 339 338 336 334 333 333 333 335 338 340 341 341 341 341 342 343 344 344 344 344 344 344 343 341 342 343 342 340 352 9 28 42 45 40 37 35 33 32 30 26 21 18 20 19 16 14 13 14 16 18 18 15 7 360 358 12
332 335 336 336 335 335 336 338 340 342 342 341 341 340 339 336 335 335 335 336 339 341 342 342 341 341 341 342 343 344 345 346 345 345 344 344 344 347 349 348 343 354 7 26 42 46 43 38 35 33 32 29 26 20 17 18 17 15 13 12 14 16 17 17 16 10 4 3 16
335 338 338 337 337 338 339 340 342 343 343 343 341 340 338 336 336 335 335 337 341 342 343 343 343 343 343 343 344 345 346 345 345 346 347 348 349 352 354 351 347 354 4 21 39 47 46 40 36 33 31 29 24 19 17 17 17 15 13 13 14 14 14 14 14 11 6 4 18
338 339 340 338 338 340 342 343 343 343 343 342 341 339 337 336 336 335 336 339 342 343 344 345 347 347 346 345 345 345 346 344 345 348 351 353 355 358 358 354 350 353 1 16 33 44 48 44 39 34 31 28 24 20 19 18 16 15 14 14 14 13 12 11 11 8 5 3 17
339 340 340 339 340 342 344 345 344 343 342 341 339 338 336 335 335 336 338 342 344 345 346 348 349 348 347 344 344 343 342 343 346 350 355 358 0 2 2 357 352 352 358 10 27 39 47 48 43 38 33 27 23 20 20 19 17 16 15 15 14 13 11 10 9 7 4 1 11
339 340 341 341 341 343 345 346 345 343 341 339 337 336 335 335 336 337 339 343 344 346 347 350 350 348 345 343 342 341 341 342 347 352 357 0 3 5 4 359 353 352 356 6 21 32 42 49 48 44 38 30 23 20 20 20 18 17 16 16 14 13 12 11 9 6 3 0 5
338 340 341 340 340 342 344 345 344 342 339 336 335 334 334 336 337 338 340 342 343 344 347 350 349 346 343 344 344 342 341 342 347 352 358 2 4 6 6 0 354 352 357 4 16 25 35 45 49 50 46 37 28 22 20 20 19 18 17 16 14 13 12 12 10 7 4 0 1
337 338 340 339 340 341 343 343 341 339 337 335 334 334 334 336 336 337 337 338 340 343 346 349 346 344 343 345 343 342 341 342 345 351 356 2 4 6 6 0 354 353 357 3 13 20 28 37 46 51 52 46 34 26 22 20 18 17 16 14 13 11 11 11 11 9 5 1 359
336 337 339 339 339 341 341 340 338 337 335 334 333 334 335 336 335 335 335 336 339 342 345 347 344 343 342 344 342 341 341 343 344 347 353 359 3 4 4 359 355 355 358 3 11 17 23 30 39 47 54 56 45 35 28 24 21 17 14 11 9 8 8 8 10 10 7 2 358